Year,Month,Day,Hour,Minute,Value (Times are PST for windgust in km/hr)
2018,12,17,00,00,6.40
2018,12,17,00,01,4.80
2018,12,17,00,02,6.40
2018,12,17,00,03,9.60
2018,12,17,00,04,6.40
2018,12,17,00,05,3.20
2018,12,17,00,06,8.10
2018,12,17,00,07,6.40
2018,12,17,00,08,3.20
2018,12,17,00,09,4.80
2018,12,17,00,10,3.20
2018,12,17,00,11,14.50
2018,12,17,00,12,8.10
2018,12,17,00,13,1.60
2018,12,17,00,14,4.80
2018,12,17,00,15,4.80
2018,12,17,00,17,3.20
2018,12,17,00,18,3.20
2018,12,17,00,29,1.60
2018,12,17,00,30,1.60
2018,12,17,00,40,1.60
2018,12,17,00,41,3.20
2018,12,17,00,42,3.20
2018,12,17,00,43,4.80
2018,12,17,00,44,4.80
2018,12,17,00,45,11.30
2018,12,17,00,46,11.30
2018,12,17,00,47,8.10
2018,12,17,00,48,6.40
2018,12,17,00,49,6.40
2018,12,17,00,50,8.10
2018,12,17,00,51,4.80
2018,12,17,00,52,4.80
2018,12,17,00,53,6.40
2018,12,17,00,54,6.40
2018,12,17,00,55,4.80
2018,12,17,00,56,6.40
2018,12,17,00,57,6.40
2018,12,17,00,58,4.80
2018,12,17,00,59,6.40
2018,12,17,01,00,6.40
2018,12,17,01,01,8.10
2018,12,17,01,02,8.10
2018,12,17,01,03,6.40
2018,12,17,01,04,8.10
2018,12,17,01,05,4.80
2018,12,17,01,06,6.40
2018,12,17,01,07,6.40
2018,12,17,01,08,3.20
2018,12,17,01,09,8.10
2018,12,17,01,10,11.30
2018,12,17,01,11,9.60
2018,12,17,01,12,9.60
2018,12,17,01,13,8.10
2018,12,17,01,14,9.60
2018,12,17,01,15,6.40
2018,12,17,01,16,6.40
2018,12,17,01,17,1.60
2018,12,17,01,18,3.20
2018,12,17,01,19,3.20
2018,12,17,01,21,1.60
2018,12,17,01,22,1.60
2018,12,17,01,23,1.60
2018,12,17,01,24,3.20
2018,12,17,01,25,4.80
2018,12,17,01,26,4.80
2018,12,17,01,27,4.80
2018,12,17,01,28,3.20
2018,12,17,01,29,1.60
2018,12,17,01,30,1.60
2018,12,17,01,32,1.60
2018,12,17,01,33,3.20
2018,12,17,01,34,1.60
2018,12,17,01,37,4.80
2018,12,17,01,38,4.80
2018,12,17,01,39,4.80
2018,12,17,01,40,6.40
2018,12,17,01,41,6.40
2018,12,17,01,42,6.40
2018,12,17,01,43,6.40
2018,12,17,01,44,6.40
2018,12,17,01,45,6.40
2018,12,17,01,46,4.80
2018,12,17,01,47,3.20
2018,12,17,01,48,1.60
2018,12,17,01,49,1.60
2018,12,17,01,58,1.60
2018,12,17,02,07,1.60
2018,12,17,02,08,3.20
2018,12,17,02,09,1.60
2018,12,17,02,10,1.60
2018,12,17,02,12,1.60
2018,12,17,02,13,3.20
2018,12,17,02,14,1.60
2018,12,17,02,15,1.60
2018,12,17,02,16,1.60
2018,12,17,02,19,1.60
2018,12,17,02,21,1.60
2018,12,17,02,22,1.60
2018,12,17,02,25,1.60
2018,12,17,02,26,3.20
2018,12,17,02,27,3.20
2018,12,17,02,28,1.60
2018,12,17,02,30,3.20
2018,12,17,02,31,1.60
2018,12,17,02,32,1.60
2018,12,17,02,35,3.20
2018,12,17,02,36,3.20
2018,12,17,02,37,3.20
2018,12,17,02,38,4.80
2018,12,17,02,39,3.20
2018,12,17,02,40,6.40
2018,12,17,02,41,4.80
2018,12,17,02,42,4.80
2018,12,17,02,43,1.60
2018,12,17,02,44,3.20
2018,12,17,02,45,3.20
2018,12,17,02,46,3.20
2018,12,17,02,47,3.20
2018,12,17,02,48,3.20
2018,12,17,02,49,1.60
2018,12,17,02,50,1.60
2018,12,17,02,51,1.60
2018,12,17,02,52,1.60
2018,12,17,02,53,3.20
2018,12,17,02,54,3.20
2018,12,17,02,55,1.60
2018,12,17,02,56,1.60
2018,12,17,02,57,1.60
2018,12,17,02,58,1.60
2018,12,17,03,03,1.60
2018,12,17,03,04,1.60
2018,12,17,03,23,1.60
2018,12,17,03,24,3.20
2018,12,17,03,25,4.80
2018,12,17,03,26,4.80
2018,12,17,03,27,3.20
2018,12,17,03,28,3.20
2018,12,17,03,29,3.20
2018,12,17,03,30,3.20
2018,12,17,03,31,3.20
2018,12,17,03,44,3.20
2018,12,17,03,45,1.60
2018,12,17,03,46,1.60
2018,12,17,03,53,1.60
2018,12,17,03,54,1.60
2018,12,17,03,59,1.60
2018,12,17,04,00,3.20
2018,12,17,04,01,1.60
2018,12,17,04,12,3.20
2018,12,17,04,13,4.80
2018,12,17,04,14,3.20
2018,12,17,04,15,3.20
2018,12,17,04,16,1.60
2018,12,17,04,17,1.60
2018,12,17,04,29,1.60
2018,12,17,04,55,1.60
2018,12,17,04,56,4.80
2018,12,17,04,57,4.80
2018,12,17,04,58,3.20
2018,12,17,04,59,1.60
2018,12,17,05,06,1.60
2018,12,17,05,07,1.60
2018,12,17,05,08,3.20
2018,12,17,05,34,1.60
2018,12,17,05,37,1.60
2018,12,17,05,50,1.60
2018,12,17,05,51,1.60
2018,12,17,05,54,3.20
2018,12,17,05,55,1.60
2018,12,17,07,42,1.60
2018,12,17,07,43,1.60
2018,12,17,07,44,1.60
2018,12,17,07,45,1.60
2018,12,17,07,57,1.60
2018,12,17,07,58,3.20
2018,12,17,07,59,3.20
2018,12,17,08,00,3.20
2018,12,17,08,01,1.60
2018,12,17,08,02,1.60
2018,12,17,08,03,1.60
2018,12,17,08,45,3.20
2018,12,17,08,46,1.60
2018,12,17,08,47,3.20
2018,12,17,08,48,1.60
2018,12,17,08,51,1.60
2018,12,17,08,56,3.20
2018,12,17,08,57,1.60
2018,12,17,08,58,1.60
2018,12,17,09,00,1.60
2018,12,17,09,01,1.60
2018,12,17,09,04,3.20
2018,12,17,09,05,1.60
2018,12,17,09,06,1.60
2018,12,17,09,14,1.60
2018,12,17,09,15,1.60
2018,12,17,09,17,1.60
2018,12,17,09,19,3.20
2018,12,17,09,20,3.20
2018,12,17,09,21,1.60
2018,12,17,09,27,3.20
2018,12,17,09,28,3.20
2018,12,17,09,29,3.20
2018,12,17,09,30,4.80
2018,12,17,09,31,4.80
2018,12,17,09,32,4.80
2018,12,17,09,33,3.20
2018,12,17,09,35,1.60
2018,12,17,09,38,1.60
2018,12,17,09,39,1.60
2018,12,17,09,40,3.20
2018,12,17,09,41,3.20
2018,12,17,09,42,3.20
2018,12,17,09,43,1.60
2018,12,17,09,44,1.60
2018,12,17,09,45,3.20
2018,12,17,09,46,1.60
2018,12,17,09,47,1.60
2018,12,17,09,53,1.60
2018,12,17,09,54,3.20
2018,12,17,09,55,3.20
2018,12,17,09,56,3.20
2018,12,17,09,58,1.60
2018,12,17,09,59,1.60
2018,12,17,10,08,1.60
2018,12,17,10,16,1.60
2018,12,17,10,17,1.60
2018,12,17,10,18,1.60
2018,12,17,10,19,3.20
2018,12,17,10,20,1.60
2018,12,17,10,24,1.60
2018,12,17,10,25,3.20
2018,12,17,10,26,3.20
2018,12,17,10,27,1.60
2018,12,17,10,28,3.20
2018,12,17,10,29,3.20
2018,12,17,10,30,3.20
2018,12,17,10,31,4.80
2018,12,17,10,32,4.80
2018,12,17,10,33,4.80
2018,12,17,10,34,4.80
2018,12,17,10,35,3.20
2018,12,17,10,37,3.20
2018,12,17,10,38,1.60
2018,12,17,10,39,1.60
2018,12,17,10,40,4.80
2018,12,17,10,41,4.80
2018,12,17,10,42,4.80
2018,12,17,10,43,3.20
2018,12,17,10,44,1.60
2018,12,17,10,45,1.60
2018,12,17,10,46,1.60
2018,12,17,10,47,1.60
2018,12,17,10,48,3.20
2018,12,17,10,49,1.60
2018,12,17,10,50,1.60
2018,12,17,11,05,1.60
2018,12,17,11,06,1.60
2018,12,17,11,07,1.60
2018,12,17,11,08,1.60
2018,12,17,11,09,1.60
2018,12,17,11,11,1.60
2018,12,17,11,12,1.60
2018,12,17,11,13,3.20
2018,12,17,11,14,3.20
2018,12,17,11,17,3.20
2018,12,17,11,18,4.80
2018,12,17,11,19,4.80
2018,12,17,11,20,1.60
2018,12,17,11,21,1.60
2018,12,17,11,22,1.60
2018,12,17,11,26,3.20
2018,12,17,11,27,1.60
2018,12,17,11,28,3.20
2018,12,17,11,29,3.20
2018,12,17,11,30,1.60
2018,12,17,11,31,3.20
2018,12,17,11,32,3.20
2018,12,17,11,33,1.60
2018,12,17,11,34,1.60
2018,12,17,11,37,1.60
2018,12,17,11,48,1.60
2018,12,17,11,49,1.60
2018,12,17,11,53,1.60
2018,12,17,11,58,1.60
2018,12,17,12,02,1.60
2018,12,17,12,25,1.60
2018,12,17,12,38,1.60
2018,12,17,12,46,1.60
2018,12,17,12,47,3.20
2018,12,17,12,48,3.20
2018,12,17,12,49,3.20
2018,12,17,12,50,6.40
2018,12,17,12,51,4.80
2018,12,17,12,52,3.20
2018,12,17,12,53,3.20
2018,12,17,12,57,4.80
2018,12,17,12,58,4.80
2018,12,17,12,59,6.40
2018,12,17,13,00,4.80
2018,12,17,13,01,6.40
2018,12,17,13,02,1.60
2018,12,17,13,03,3.20
2018,12,17,13,04,4.80
2018,12,17,13,05,1.60
2018,12,17,13,06,1.60
2018,12,17,13,07,1.60
2018,12,17,13,08,1.60
2018,12,17,13,09,1.60
2018,12,17,13,16,1.60
2018,12,17,13,17,3.20
2018,12,17,13,18,1.60
2018,12,17,13,22,1.60
2018,12,17,13,25,1.60
2018,12,17,13,26,3.20
2018,12,17,13,27,1.60
2018,12,17,13,28,1.60
2018,12,17,13,47,1.60
2018,12,17,13,51,1.60
2018,12,17,13,52,1.60
2018,12,17,13,54,3.20
2018,12,17,13,55,3.20
2018,12,17,13,56,3.20
2018,12,17,13,57,1.60
2018,12,17,13,58,1.60
2018,12,17,14,00,1.60
2018,12,17,14,01,1.60
2018,12,17,14,02,1.60
2018,12,17,14,03,3.20
2018,12,17,14,08,1.60
2018,12,17,14,09,1.60
2018,12,17,14,10,1.60
2018,12,17,14,11,3.20
2018,12,17,14,12,3.20
2018,12,17,14,13,3.20
2018,12,17,14,14,4.80
2018,12,17,14,15,1.60
2018,12,17,14,16,6.40
2018,12,17,14,17,6.40
2018,12,17,14,18,6.40
2018,12,17,14,19,6.40
2018,12,17,14,20,6.40
2018,12,17,14,21,3.20
2018,12,17,14,22,3.20
2018,12,17,14,23,3.20
2018,12,17,14,24,1.60
2018,12,17,14,25,3.20
2018,12,17,14,26,1.60
2018,12,17,14,30,3.20
2018,12,17,14,31,3.20
2018,12,17,14,32,6.40
2018,12,17,14,33,6.40
2018,12,17,14,34,4.80
2018,12,17,14,35,4.80
2018,12,17,14,36,4.80
2018,12,17,14,37,9.60
2018,12,17,14,38,9.60
2018,12,17,14,39,8.10
2018,12,17,14,40,8.10
2018,12,17,14,41,6.40
2018,12,17,14,42,6.40
2018,12,17,14,43,3.20
2018,12,17,14,44,3.20
2018,12,17,14,45,1.60
2018,12,17,14,46,1.60
2018,12,17,14,47,1.60
2018,12,17,14,48,3.20
2018,12,17,14,49,3.20
2018,12,17,14,50,3.20
2018,12,17,14,51,3.20
2018,12,17,14,52,3.20
2018,12,17,14,53,1.60
2018,12,17,14,54,3.20
2018,12,17,14,55,3.20
2018,12,17,14,56,3.20
2018,12,17,14,57,3.20
2018,12,17,14,58,1.60
2018,12,17,14,59,1.60
2018,12,17,15,00,1.60
2018,12,17,15,04,1.60
2018,12,17,15,26,3.20
2018,12,17,15,27,3.20
2018,12,17,15,28,3.20
2018,12,17,15,29,1.60
2018,12,17,15,30,1.60
2018,12,17,15,42,1.60
2018,12,17,15,43,1.60
2018,12,17,15,44,3.20
2018,12,17,15,45,6.40
2018,12,17,15,46,4.80
2018,12,17,15,47,3.20
2018,12,17,15,48,1.60
2018,12,17,15,49,1.60
2018,12,17,15,50,4.80
2018,12,17,15,51,3.20
2018,12,17,15,52,3.20
2018,12,17,15,53,4.80
2018,12,17,15,54,4.80
2018,12,17,15,55,3.20
2018,12,17,15,56,4.80
2018,12,17,15,57,6.40
2018,12,17,15,58,3.20
2018,12,17,16,00,1.60
2018,12,17,16,01,3.20
2018,12,17,16,02,3.20
2018,12,17,16,03,1.60
2018,12,17,16,06,1.60
2018,12,17,16,28,1.60
2018,12,17,16,29,3.20
2018,12,17,16,33,1.60
2018,12,17,16,34,4.80
2018,12,17,16,35,4.80
2018,12,17,16,36,3.20
2018,12,17,16,37,3.20
2018,12,17,16,40,1.60
2018,12,17,16,41,3.20
2018,12,17,16,44,1.60
2018,12,17,16,52,1.60
2018,12,17,16,53,1.60
2018,12,17,16,55,1.60
2018,12,17,16,56,4.80
2018,12,17,16,57,4.80
2018,12,17,16,58,3.20
2018,12,17,16,59,3.20
2018,12,17,17,00,1.60
2018,12,17,17,01,1.60
2018,12,17,17,02,1.60
2018,12,17,17,03,1.60
2018,12,17,17,13,1.60
2018,12,17,17,14,1.60
2018,12,17,17,16,1.60
2018,12,17,17,18,1.60
2018,12,17,17,19,1.60
2018,12,17,17,20,1.60
2018,12,17,17,21,1.60
2018,12,17,17,26,1.60
2018,12,17,17,35,3.20
2018,12,17,17,36,1.60
2018,12,17,17,38,3.20
2018,12,17,17,39,3.20
2018,12,17,17,40,1.60
2018,12,17,17,41,3.20
2018,12,17,17,42,3.20
2018,12,17,17,43,3.20
2018,12,17,17,44,1.60
2018,12,17,17,45,1.60
2018,12,17,17,46,1.60
2018,12,17,17,47,1.60
2018,12,17,17,48,3.20
2018,12,17,17,49,3.20
2018,12,17,17,50,3.20
2018,12,17,17,51,3.20
2018,12,17,17,52,3.20
2018,12,17,17,53,3.20
2018,12,17,17,54,1.60
2018,12,17,17,55,1.60
2018,12,17,17,57,1.60
2018,12,17,17,58,3.20
2018,12,17,17,59,1.60
2018,12,17,18,09,3.20
2018,12,17,18,10,3.20
2018,12,17,18,11,1.60
2018,12,17,18,12,1.60
2018,12,17,18,13,1.60
2018,12,17,18,14,3.20
2018,12,17,18,15,6.40
2018,12,17,18,16,6.40
2018,12,17,18,17,9.60
2018,12,17,18,18,8.10
2018,12,17,18,19,8.10
2018,12,17,18,20,6.40
2018,12,17,18,21,8.10
2018,12,17,18,22,9.60
2018,12,17,18,23,9.60
2018,12,17,18,24,6.40
2018,12,17,18,25,8.10
2018,12,17,18,26,3.20
2018,12,17,18,27,6.40
2018,12,17,18,28,4.80
2018,12,17,18,29,12.90
2018,12,17,18,30,9.60
2018,12,17,18,31,11.30
2018,12,17,18,32,17.70
2018,12,17,18,33,12.90
2018,12,17,18,34,8.10
2018,12,17,18,35,6.40
2018,12,17,18,36,4.80
2018,12,17,18,37,9.60
2018,12,17,18,38,3.20
2018,12,17,18,39,4.80
2018,12,17,18,40,6.40
2018,12,17,18,41,16.10
2018,12,17,18,42,19.30
2018,12,17,18,43,16.10
2018,12,17,18,44,17.70
2018,12,17,18,45,11.30
2018,12,17,18,46,3.20
2018,12,17,18,47,3.20
2018,12,17,18,48,3.20
2018,12,17,18,49,6.40
2018,12,17,18,50,8.10
2018,12,17,18,51,4.80
2018,12,17,18,52,4.80
2018,12,17,18,53,3.20
2018,12,17,18,54,1.60
2018,12,17,18,55,1.60
2018,12,17,18,56,3.20
2018,12,17,18,57,3.20
2018,12,17,18,58,1.60
2018,12,17,18,59,3.20
2018,12,17,19,00,4.80
2018,12,17,19,01,4.80
2018,12,17,19,02,4.80
2018,12,17,19,03,6.40
2018,12,17,19,04,6.40
2018,12,17,19,05,4.80
2018,12,17,19,06,1.60
2018,12,17,19,07,3.20
2018,12,17,19,08,3.20
2018,12,17,19,09,3.20
2018,12,17,19,10,3.20
2018,12,17,19,11,6.40
2018,12,17,19,12,6.40
2018,12,17,19,13,3.20
2018,12,17,19,14,4.80
2018,12,17,19,16,4.80
2018,12,17,19,17,1.60
2018,12,17,19,18,1.60
2018,12,17,19,19,1.60
2018,12,17,19,20,3.20
2018,12,17,19,21,3.20
2018,12,17,19,22,3.20
2018,12,17,19,23,4.80
2018,12,17,19,24,4.80
2018,12,17,19,25,3.20
2018,12,17,19,26,3.20
2018,12,17,19,27,3.20
2018,12,17,19,28,4.80
2018,12,17,19,29,4.80
2018,12,17,19,30,4.80
2018,12,17,19,31,3.20
2018,12,17,19,32,3.20
2018,12,17,19,33,4.80
2018,12,17,19,34,3.20
2018,12,17,19,35,4.80
2018,12,17,19,36,1.60
2018,12,17,19,37,3.20
2018,12,17,19,38,8.10
2018,12,17,19,39,8.10
2018,12,17,19,40,8.10
2018,12,17,19,41,3.20
2018,12,17,19,42,6.40
2018,12,17,19,43,4.80
2018,12,17,19,44,1.60
2018,12,17,19,45,1.60
2018,12,17,19,46,4.80
2018,12,17,19,47,4.80
2018,12,17,19,48,3.20
2018,12,17,19,49,6.40
2018,12,17,19,50,6.40
2018,12,17,19,51,3.20
2018,12,17,19,53,1.60
2018,12,17,19,57,1.60
2018,12,17,19,58,1.60
2018,12,17,19,59,3.20
2018,12,17,20,00,3.20
2018,12,17,20,01,1.60
2018,12,17,20,04,1.60
2018,12,17,20,05,4.80
2018,12,17,20,06,3.20
2018,12,17,20,07,3.20
2018,12,17,20,08,3.20
2018,12,17,20,10,1.60
2018,12,17,20,11,1.60
2018,12,17,20,12,1.60
2018,12,17,20,13,3.20
2018,12,17,20,14,1.60
2018,12,17,20,15,3.20
2018,12,17,20,16,3.20
2018,12,17,20,17,6.40
2018,12,17,20,18,6.40
2018,12,17,20,19,1.60
2018,12,17,20,20,1.60
2018,12,17,20,21,1.60
2018,12,17,20,22,3.20
2018,12,17,20,23,1.60
2018,12,17,20,24,3.20
2018,12,17,20,25,3.20
2018,12,17,20,26,1.60
2018,12,17,20,27,1.60
2018,12,17,20,28,1.60
2018,12,17,20,30,1.60
2018,12,17,20,31,3.20
2018,12,17,20,32,4.80
2018,12,17,20,33,3.20
2018,12,17,20,34,1.60
2018,12,17,20,35,1.60
2018,12,17,20,36,4.80
2018,12,17,20,37,6.40
2018,12,17,20,38,8.10
2018,12,17,20,39,6.40
2018,12,17,20,40,6.40
2018,12,17,20,41,3.20
2018,12,17,20,42,1.60
2018,12,17,20,43,4.80
2018,12,17,20,44,3.20
2018,12,17,20,45,4.80
2018,12,17,20,49,3.20
2018,12,17,20,50,4.80
2018,12,17,20,51,6.40
2018,12,17,20,52,6.40
2018,12,17,20,53,6.40
2018,12,17,20,54,6.40
2018,12,17,20,55,6.40
2018,12,17,20,56,6.40
2018,12,17,20,57,3.20
2018,12,17,20,58,4.80
2018,12,17,20,59,4.80
2018,12,17,21,00,4.80
2018,12,17,21,01,1.60
2018,12,17,21,03,1.60
2018,12,17,21,04,3.20
2018,12,17,21,05,3.20
2018,12,17,21,10,6.40
2018,12,17,21,11,6.40
2018,12,17,21,12,4.80
2018,12,17,21,13,3.20
2018,12,17,21,14,1.60
2018,12,17,21,17,4.80
2018,12,17,21,18,3.20
2018,12,17,21,19,1.60
2018,12,17,21,20,1.60
2018,12,17,21,21,1.60
2018,12,17,21,22,3.20
2018,12,17,21,23,1.60
2018,12,17,21,30,1.60
2018,12,17,21,57,1.60
2018,12,17,21,59,1.60
2018,12,17,22,00,3.20
2018,12,17,22,01,3.20
2018,12,17,22,02,1.60
2018,12,17,22,03,1.60
2018,12,17,22,04,1.60
2018,12,17,22,05,3.20
2018,12,17,22,06,3.20
2018,12,17,22,07,3.20
2018,12,17,22,29,1.60
2018,12,17,22,30,3.20
2018,12,17,22,31,3.20
2018,12,17,22,32,1.60
2018,12,17,22,33,1.60
2018,12,17,22,34,3.20
2018,12,17,22,35,1.60
2018,12,17,22,36,3.20
2018,12,17,22,37,3.20
2018,12,17,22,40,1.60
2018,12,17,22,41,3.20
2018,12,17,22,42,4.80
2018,12,17,22,43,4.80
2018,12,17,22,45,1.60
2018,12,17,22,46,4.80
2018,12,17,22,47,4.80
2018,12,17,22,48,4.80
2018,12,17,22,49,6.40
2018,12,17,22,50,4.80
2018,12,17,22,51,4.80
2018,12,17,22,52,3.20
2018,12,17,22,53,4.80
2018,12,17,22,54,1.60
2018,12,17,22,55,1.60
2018,12,17,22,56,1.60
2018,12,17,22,58,1.60
2018,12,17,23,00,1.60
2018,12,17,23,01,1.60
2018,12,17,23,02,1.60
2018,12,17,23,04,1.60
2018,12,17,23,05,4.80
2018,12,17,23,06,6.40
2018,12,17,23,07,6.40
2018,12,17,23,08,6.40
2018,12,17,23,09,8.10
2018,12,17,23,10,6.40
2018,12,17,23,11,8.10
2018,12,17,23,12,3.20
2018,12,17,23,23,1.60
2018,12,17,23,27,1.60
2018,12,17,23,28,3.20
2018,12,17,23,29,1.60
2018,12,17,23,30,1.60
2018,12,17,23,31,1.60
2018,12,17,23,32,1.60
2018,12,17,23,51,3.20
2018,12,17,23,52,4.80
2018,12,17,23,53,6.40
2018,12,17,23,54,3.20
2018,12,17,23,55,4.80
2018,12,17,23,56,4.80
2018,12,17,23,57,4.80
2018,12,17,23,58,4.80
2018,12,17,23,59,3.20
